TimeAKDT,TemperatureF,Dew PointF,Humidity,Sea Level PressureIn,VisibilityMPH,Wind Direction,Wind SpeedMPH,Gust SpeedMPH,PrecipitationIn,Events,Conditions,WindDirDegrees,DateUTC
12:27 AM,41.0,37.4,87,29.53,9.0,ENE,19.6,28.8,0.01,Rain,Light Rain,70,2013-04-09 08:27:00
12:54 AM,41.0,37.0,86,29.51,8.0,ENE,16.1,24.2,0.03,Rain,Light Rain,70,2013-04-09 08:54:00
1:25 AM,39.2,37.4,93,29.47,5.0,ENE,16.1,27.6,0.03,Rain,Rain,70,2013-04-09 09:25:00
1:54 AM,39.9,37.0,89,29.44,6.0,ENE,13.8,25.3,0.08,Rain,Rain,70,2013-04-09 09:54:00
2:54 AM,39.0,36.0,89,29.34,9.0,ENE,10.4,26.5,0.08,Rain,Light Rain,70,2013-04-09 10:54:00
3:54 AM,37.0,35.1,93,29.30,8.0,East,8.1,-,0.10,Rain,Rain,80,2013-04-09 11:54:00
4:54 AM,35.1,33.1,92,29.24,4.0,ESE,9.2,17.3,0.13,Rain,Rain,120,2013-04-09 12:54:00
5:01 AM,33.8,33.8,100,29.21,4.0,SE,17.3,28.8,0.01,Rain,Rain,130,2013-04-09 13:01:00
5:22 AM,35.6,33.8,93,29.21,3.0,SE,21.9,31.1,0.07,Rain,Rain,130,2013-04-09 13:22:00
5:54 AM,37.0,34.0,89,29.18,8.0,East,15.0,23.0,0.10,Rain,Light Rain,90,2013-04-09 13:54:00
6:04 AM,39.2,35.6,87,29.16,7.0,ENE,15.0,25.3,0.01,Rain,Light Rain,70,2013-04-09 14:04:00
6:14 AM,39.2,35.6,87,29.14,6.0,ENE,17.3,26.5,0.02,Rain,Rain,60,2013-04-09 14:14:00
6:43 AM,39.2,35.6,87,29.14,7.0,ENE,11.5,24.2,0.05,Rain,Rain,70,2013-04-09 14:43:00
6:54 AM,39.9,36.0,86,29.15,9.0,East,11.5,28.8,0.06,Rain,Light Rain,90,2013-04-09 14:54:00
7:24 AM,39.2,35.6,87,29.12,8.0,East,13.8,24.2,0.03,Rain,Rain,80,2013-04-09 15:24:00
7:54 AM,39.0,35.1,86,29.10,7.0,ENE,16.1,24.2,0.07,Rain,Light Rain,70,2013-04-09 15:54:00
8:33 AM,39.2,35.6,87,29.07,7.0,ENE,12.7,25.3,0.03,Rain,Light Rain,60,2013-04-09 16:33:00
8:43 AM,39.2,35.6,87,29.07,6.0,ENE,16.1,29.9,0.04,Rain,Rain,70,2013-04-09 16:43:00
8:54 AM,39.0,36.0,89,29.08,6.0,East,15.0,29.9,0.05,Rain,Light Rain,90,2013-04-09 16:54:00
9:54 AM,39.9,36.0,86,29.05,4.0,ENE,13.8,31.1,0.09,Rain,Rain,70,2013-04-09 17:54:00
10:54 AM,39.9,37.0,89,29.03,6.0,ENE,18.4,38.0,0.08,Rain,Rain,60,2013-04-09 18:54:00
11:04 AM,41.0,37.4,87,29.03,7.0,East,19.6,35.7,0.00,Rain,Light Rain,80,2013-04-09 19:04:00
11:36 AM,41.0,37.4,87,29.06,6.0,East,13.8,25.3,0.03,Rain,Light Rain,90,2013-04-09 19:36:00
11:54 AM,41.0,39.0,93,29.09,4.0,East,16.1,27.6,0.06,Rain,Rain,90,2013-04-09 19:54:00
12:30 PM,41.0,39.2,93,29.11,4.0,East,13.8,32.2,0.07,Rain,Rain,90,2013-04-09 20:30:00
12:44 PM,41.0,37.4,87,29.13,3.0,East,19.6,40.3,0.10,Rain,Rain,90,2013-04-09 20:44:00
12:54 PM,41.0,39.0,93,29.15,3.0,East,16.1,34.5,0.11,Rain,Rain,100,2013-04-09 20:54:00
1:54 PM,41.0,37.9,89,29.22,5.0,ESE,18.4,43.7,0.06,Rain,Light Rain,120,2013-04-09 21:54:00
2:07 PM,41.0,37.4,87,29.23,5.0,ESE,21.9,38.0,0.01,Rain,Light Rain,120,2013-04-09 22:07:00
2:14 PM,41.0,37.4,87,29.23,6.0,ESE,24.2,35.7,0.01,Rain,Light Rain,120,2013-04-09 22:14:00
2:54 PM,41.0,36.0,82,29.28,9.0,ESE,20.7,36.8,0.01,Rain,Light Rain,120,2013-04-09 22:54:00
3:54 PM,39.9,35.1,83,29.36,10.0,ESE,17.3,34.5,0.00,Rain,Light Rain,120,2013-04-09 23:54:00
4:54 PM,41.0,32.0,70,29.40,10.0,ESE,17.3,29.9,0.00,,Mostly Cloudy,110,2013-04-10 00:54:00
5:54 PM,39.9,27.0,60,29.46,10.0,ESE,15.0,27.6,N/A,,Scattered Clouds,110,2013-04-10 01:54:00
6:54 PM,37.9,28.0,68,29.49,10.0,East,13.8,26.5,N/A,,Mostly Cloudy,100,2013-04-10 02:54:00
7:54 PM,36.0,24.1,62,29.53,10.0,East,13.8,31.1,N/A,,Overcast,100,2013-04-10 03:54:00
8:54 PM,35.1,26.1,70,29.59,10.0,East,13.8,29.9,0.00,,Overcast,100,2013-04-10 04:54:00
9:54 PM,36.0,26.1,67,29.62,10.0,ESE,18.4,24.2,0.00,,Overcast,110,2013-04-10 05:54:00
10:27 PM,33.8,28.4,81,29.63,2.5,ESE,12.7,24.2,0.00,Snow,Light Snow,120,2013-04-10 06:27:00
10:52 PM,33.8,28.4,81,29.64,3.0,ESE,9.2,21.9,0.00,Snow,Light Snow,110,2013-04-10 06:52:00
10:54 PM,33.1,28.9,85,29.65,3.0,ESE,10.4,19.6,0.00,Snow,Light Snow,120,2013-04-10 06:54:00
11:06 PM,33.8,30.2,87,29.64,4.0,East,16.1,26.5,0.00,Snow,Light Snow,100,2013-04-10 07:06:00
11:42 PM,33.8,30.2,87,29.65,5.0,ESE,11.5,31.1,0.00,Snow,Light Snow,120,2013-04-10 07:42:00
11:54 PM,34.0,28.9,82,29.66,9.0,East,10.4,28.8,0.00,Snow,Light Snow,100,2013-04-10 07:54:00